User: anonymous   Login
Location: Thompson
(55.7500°N, 97.8670°W)
Time: 07:51:34
(UTC-06:00)
Language:

Cosmos 1833 Rocket - Orbit

View from above orbital plane
View from above orbital plane
View from above satellite
View from above satellite

Ground track
Ground track

The orbit data is extracted from the following two-line orbital elements,

1 17590U 87027B   18049.89648312 -.00000249 +00000-0 -10057-3 0  9992
2 17590 071.0049 350.4615 0007402 281.2433 078.7859 14.16753698598832
Epoch (UTC): 18 February 2018 21:30:56
Eccentricity: 0.0007402
inclination: 71.0049°
perigee height: 831 km
apogee height: 841 km
right ascension of ascending node: 350.4615°
argument of perigee: 281.2433°
revolutions per day: 14.16753698
mean anomaly at epoch: 78.7859°
orbit number at epoch: 59883

The dashed part of the orbit path shows where the satellite is in the earth's shadow,  

DLR